GEFSCGP_con_prob3kmehi_126.txt.gz
EHI
0 0 0 0 0 0 1 0 0 0 1 3 6 10 17 21 24 28 31 30 32 34 33 32 32 31 28 27 29 30 29 28 26 24 21 16 9 4 3 3 4 5 4 3
0 0 0 0 1 1 1 0 0 0 1 3 4 8 13 18 21 24 26 27 30 32 32 32 31 29 27 26 25 25 23 21 20 19 16 13 9 6 4 3 4 4 3 2
0 0 0 1 2 2 1 0 0 0 1 1 2 5 9 13 16 18 21 23 26 30 31 30 28 26 24 22 19 17 16 15 14 13 11 11 10 8 6 4 3 3 2 1
0 0 1 2 2 1 0 0 0 0 0 0 1 3 6 9 12 15 17 19 24 29 30 28 24 20 18 17 15 13 12 11 11 9 8 9 9 8 6 4 2 1 1 0
0 0 1 2 2 1 0 0 0 0 0 0 0 2 4 6 9 13 16 18 24 29 29 26 21 17 15 14 13 11 9 8 8 6 5 5 5 4 4 3 1 0 0 0
0 0 0 1 1 0 0 0 0 1 1 1 1 1 3 4 8 11 15 18 23 27 27 23 19 15 13 13 13 11 8 6 5 4 4 3 2 2 2 2 1 0 0 0
0 0 0 0 0 0 0 0 0 1 2 2 1 1 2 3 6 9 13 17 21 23 23 19 16 14 13 13 13 11 8 5 4 4 3 2 1 1 1 1 0 0 0 0
0 0 0 1 2 1 1 1 1 1 2 2 2 2 1 2 4 7 10 15 19 20 19 17 15 13 13 13 13 11 8 5 4 5 4 2 1 0 0 0 0 0 0 0
0 0 1 2 2 2 2 2 1 0 1 2 2 2 1 2 4 5 7 11 16 17 17 17 16 13 12 12 12 11 8 6 5 5 4 3 1 0 0 0 0 0 0 0
0 0 1 2 2 3 3 2 1 0 1 1 2 1 1 2 5 5 5 7 9 12 16 20 17 14 12 11 11 11 9 7 5 4 3 2 1 0 0 0 0 0 0 0
0 0 1 2 3 3 3 2 1 0 0 0 0 0 1 2 4 5 4 4 4 7 15 20 19 14 12 12 12 12 10 7 4 2 1 1 1 0 0 0 0 0 0 0
0 0 0 1 2 3 2 1 0 0 0 0 0 0 1 3 4 4 3 3 4 5 11 19 20 16 14 15 15 15 13 9 5 1 0 1 0 0 0 0 0 0 0 0
0 0 0 1 1 2 2 1 1 0 0 0 1 1 1 3 3 3 3 5 7 8 11 18 21 21 21 21 19 17 15 12 7 2 0 0 0 0 0 0 0 0 0 0
0 0 0 0 1 1 2 3 2 1 0 0 1 2 1 1 1 1 3 7 10 11 15 21 24 26 27 26 22 19 17 14 10 6 3 1 1 0 0 0 0 0 0 0
1 1 1 0 0 2 3 3 2 1 0 0 1 2 2 1 1 3 5 8 10 12 16 22 26 26 26 24 22 21 20 18 15 12 8 5 3 1 1 1 0 0 0 0
2 2 2 1 1 2 2 2 1 1 1 1 1 2 3 2 3 6 8 8 9 9 12 18 23 24 23 20 19 22 25 23 21 18 14 9 6 4 3 2 1 1 0 0
1 2 2 2 2 3 3 2 1 2 3 3 3 3 4 4 6 7 7 7 7 7 9 13 18 20 20 19 18 23 28 29 27 24 19 13 9 7 6 4 3 2 1 1
0 1 1 2 3 3 3 3 2 2 2 3 5 6 7 8 8 7 6 5 5 5 7 11 15 16 17 19 21 25 28 30 31 27 21 16 14 11 9 7 5 3 2 2
0 0 1 2 3 3 3 3 2 1 1 2 6 9 11 12 11 8 7 6 5 6 8 12 16 17 17 19 21 24 25 27 29 27 23 20 18 16 14 10 6 3 1 1
0 0 1 2 3 3 3 2 1 0 0 1 5 7 10 13 12 10 10 9 9 10 10 14 18 19 16 15 17 19 21 24 27 26 24 22 21 19 17 12 7 3 1 0
0 0 0 2 3 3 1 1 0 0 0 0 2 4 7 9 11 11 11 11 11 12 11 12 15 16 14 12 13 15 17 21 23 23 21 20 20 20 19 14 8 4 2 1
0 0 0 1 2 2 1 0 0 1 1 1 1 2 4 7 11 11 11 10 10 11 11 10 10 12 12 11 12 13 14 16 18 17 15 15 15 17 16 13 9 6 4 4
0 0 0 1 1 1 0 0 1 2 2 2 2 2 4 9 13 13 11 10 8 9 9 8 7 8 10 11 11 11 11 14 16 14 11 11 12 13 11 9 8 7 5 5
0 0 0 0 0 0 0 0 1 2 3 3 3 4 6 10 12 12 11 9 7 7 8 6 4 5 7 7 7 8 9 12 13 11 9 9 10 10 8 7 7 7 6 5
0 0 0 0 0 0 0 0 1 2 2 2 3 4 5 6 6 6 6 6 5 7 7 5 4 5 5 4 4 5 5 7 7 7 6 7 8 9 7 5 5 6 5 5
0 0 0 0 0 0 0 0 1 1 1 1 2 3 3 3 3 2 2 2 3 5 6 6 5 5 4 3 3 3 3 2 2 3 4 5 7 8 6 4 3 3 4 4

GEFSCGP_con_prob3kmehi_132.txt.gz
EHI
0 0 0 0 0 0 0 0 0 0 0 0 0 0 5 14 19 22 25 25 24 22 20 20 21 21 20 18 14 9 7 9 11 12 9 3 0 0 0 0 0 0 0 0
0 0 0 0 0 0 0 0 0 0 0 0 0 0 3 10 14 17 19 19 18 16 16 18 19 19 19 17 13 8 5 6 8 8 5 2 0 0 0 0 0 0 0 0
0 0 0 0 0 0 0 0 0 0 0 0 0 0 1 4 6 8 11 12 12 11 11 14 18 19 18 15 11 8 5 4 5 4 2 0 0 0 0 0 0 0 0 0
0 0 0 0 0 0 0 0 0 0 0 0 0 0 0 1 2 4 6 9 11 11 10 13 17 18 15 12 9 7 4 3 3 3 2 0 0 0 1 0 0 0 0 0
0 0 0 0 0 0 0 0 0 0 0 0 0 0 0 0 1 2 4 7 9 12 12 14 16 16 13 9 7 5 4 3 3 3 1 0 0 0 1 0 0 1 1 0
0 0 0 0 0 0 0 0 0 0 0 0 0 0 0 0 0 1 2 4 7 11 14 14 15 15 11 8 6 4 3 3 3 2 1 0 0 0 1 1 1 2 2 1
0 0 0 0 0 0 0 0 0 0 0 0 0 0 0 0 0 0 1 3 6 10 12 14 15 14 11 8 5 4 3 3 3 2 1 0 0 0 0 1 1 2 2 1
0 0 0 0 0 0 0 0 0 0 0 0 0 0 0 0 0 0 1 3 7 10 12 13 15 14 11 8 5 3 3 3 3 2 1 0 0 0 0 0 1 1 1 0
0 0 0 0 0 0 0 0 0 0 0 0 0 0 0 0 0 0 1 3 7 9 10 13 15 15 12 8 4 3 3 3 3 2 1 0 0 0 0 0 0 0 0 0
0 0 0 0 0 0 0 0 0 0 0 0 0 0 0 0 0 0 1 3 5 6 7 10 13 13 11 7 4 3 3 3 3 2 1 0 0 0 0 0 0 0 0 0
0 0 0 0 0 0 0 0 0 0 0 0 0 0 0 0 0 0 1 2 3 3 4 6 9 10 9 7 5 4 3 3 3 1 0 0 0 0 0 0 0 0 0 0
0 0 0 0 0 0 0 0 0 0 0 0 0 0 0 0 0 0 0 1 2 3 3 3 5 7 7 7 6 5 4 3 3 1 0 0 0 0 0 0 0 0 0 0
0 0 0 0 0 0 0 0 0 0 0 0 0 0 0 0 0 0 0 0 1 2 2 2 3 5 6 5 6 5 4 3 3 2 1 0 0 0 0 0 0 0 0 0
0 0 0 0 0 0 0 0 0 0 0 0 0 0 0 0 0 0 0 0 0 1 1 0 1 2 2 2 3 4 4 3 3 2 1 0 0 0 0 0 0 0 0 0
0 0 0 0 0 0 0 0 0 0 0 0 0 0 0 0 0 0 0 0 0 0 0 0 0 0 0 1 2 3 3 3 3 2 1 0 0 0 0 0 0 0 0 0
0 0 0 0 0 0 0 0 0 0 0 0 0 0 0 0 0 0 0 0 0 0 0 0 0 0 0 1 2 1 2 3 3 2 1 0 0 0 0 0 0 0 0 0
0 0 0 0 0 0 0 0 0 0 0 0 0 0 0 0 0 0 0 0 0 0 0 0 0 0 0 1 2 2 2 2 2 1 1 0 0 0 0 0 0 0 0 0
0 0 0 0 0 0 0 0 0 0 0 0 0 0 0 0 0 0 0 0 0 0 0 0 0 0 0 0 1 2 3 2 1 1 0 0 1 1 0 0 0 0 0 1
0 0 0 0 0 0 0 0 0 0 0 0 0 0 0 0 0 1 0 0 0 0 0 0 0 0 0 0 1 2 3 2 2 1 1 1 1 0 0 0 0 0 1 2
0 0 0 0 0 0 0 0 0 0 0 0 0 0 0 0 0 0 0 0 0 0 0 0 0 0 0 0 1 1 2 3 3 3 2 1 0 0 0 0 0 0 1 2
0 0 0 0 0 0 0 0 0 0 0 0 0 0 0 0 0 0 0 0 0 0 0 0 0 0 0 0 0 1 3 3 3 3 3 1 1 0 0 0 0 0 0 1
0 0 0 0 0 0 0 0 0 0 0 0 0 0 0 0 0 0 0 0 0 0 0 0 0 0 0 0 0 2 3 3 3 3 3 3 2 1 0 0 0 0 0 1
0 0 0 0 0 0 0 0 0 0 0 0 0 0 0 0 0 0 0 0 0 0 0 0 0 0 0 0 1 1 3 4 3 3 3 3 3 2 1 0 0 0 0 1
0 0 0 0 0 0 0 0 0 0 0 0 0 0 0 0 0 0 0 0 0 0 0 0 0 0 0 0 1 2 3 4 4 3 2 2 3 2 1 0 0 0 0 0
0 0 0 0 0 0 0 0 0 0 0 0 0 0 0 0 0 0 0 0 0 0 0 0 0 0 0 0 1 2 3 4 3 2 1 1 2 2 1 0 0 0 0 0
0 0 0 0 0 0 0 0 0 0 0 0 0 0 0 0 0 0 0 0 0 0 0 0 0 0 0 0 0 1 2 2 1 1 0 0 1 2 2 1 0 0 0 0

GEFSCGP_con_prob3kmehi_138.txt.gz
EHI
0 0 0 0 0 0 0 0 0 0 0 0 0 1 3 5 7 12 18 20 20 24 30 35 37 37 38 41 42 39 35 34 38 44 45 39 30 24 15 7 5 3 2 1
0 0 0 0 0 0 0 0 0 0 0 0 0 1 3 4 5 10 17 19 19 23 29 33 36 37 38 38 38 36 34 33 34 38 42 40 33 25 15 7 4 3 2 2
0 0 0 0 0 0 0 0 0 0 0 0 0 1 3 3 4 8 14 17 17 20 24 27 32 36 37 36 34 31 31 31 28 29 33 35 31 22 12 6 3 2 2 2
0 0 0 0 0 0 0 0 0 0 0 0 0 0 2 3 3 7 11 14 16 18 20 23 27 32 34 33 30 27 26 25 23 22 23 24 22 16 9 5 3 3 3 4
0 0 0 0 0 0 0 0 0 0 0 0 0 0 1 3 3 5 8 11 13 15 18 21 25 28 30 28 26 24 22 19 15 14 15 16 14 11 10 6 4 4 5 6
0 0 0 0 0 0 0 0 0 0 0 0 0 0 1 2 3 4 6 9 11 13 17 20 22 25 27 26 23 21 19 14 9 7 10 11 9 8 8 4 2 4 6 7
0 0 0 0 0 0 0 0 0 0 0 0 0 0 1 1 1 3 5 7 9 12 15 19 22 25 26 24 21 19 16 12 6 4 6 6 5 4 3 1 0 2 4 6
0 0 0 0 0 0 0 0 0 0 0 0 0 0 1 0 0 1 4 7 9 10 12 16 21 24 24 20 18 17 15 11 6 5 4 4 3 3 2 1 0 1 3 4
0 0 0 0 0 0 0 0 0 0 0 0 0 0 0 0 0 1 4 7 9 9 8 11 17 22 20 17 15 14 13 10 7 6 5 5 4 3 3 2 1 1 3 4
0 0 0 0 0 0 0 0 0 0 0 0 0 0 0 0 0 2 4 7 9 9 8 9 15 19 17 14 12 10 10 10 8 7 6 4 3 3 4 4 4 4 4 5
0 0 0 0 0 0 0 0 0 0 0 0 0 0 0 0 0 1 2 6 10 10 9 10 15 18 18 14 10 8 8 9 9 7 6 4 3 3 3 4 6 6 5 5
0 0 0 0 0 0 0 0 0 0 0 0 0 0 0 0 0 0 1 5 10 10 8 10 14 18 18 15 11 8 8 9 9 9 6 4 2 2 2 4 6 6 5 4
0 0 0 0 0 0 0 0 0 0 0 0 0 0 0 0 1 1 1 4 8 8 8 10 15 17 17 14 12 10 9 9 9 9 7 4 2 2 2 3 5 6 5 5
0 0 0 0 0 0 0 0 0 0 0 0 0 0 0 1 1 1 2 4 7 8 8 13 19 20 17 14 13 11 9 8 8 8 7 4 3 3 3 3 5 6 5 5
0 0 0 0 0 0 0 0 0 0 0 0 0 0 1 2 2 2 3 6 9 10 11 17 23 24 22 19 16 13 10 8 7 8 8 6 4 3 3 4 5 6 6 6
0 0 0 0 0 0 0 0 0 0 0 1 0 1 2 3 3 3 4 6 10 12 13 18 24 26 27 26 21 16 12 9 8 8 9 8 5 3 4 5 7 9 10 10
2 2 1 0 0 0 0 0 0 0 0 0 0 1 3 3 3 5 6 8 11 13 12 15 19 24 26 27 24 19 14 13 11 9 10 9 6 4 4 6 11 15 15 14
5 4 2 1 0 0 0 0 0 0 0 0 0 1 3 4 3 5 8 11 14 14 10 9 11 16 20 22 22 21 20 21 18 15 14 14 12 8 7 9 14 19 20 17
4 4 2 1 0 0 0 0 0 0 0 0 1 2 3 4 2 4 8 12 15 15 12 9 8 11 15 18 19 21 24 26 24 22 22 23 21 17 15 17 21 25 25 22
1 1 1 0 0 0 0 0 0 0 0 0 1 2 3 4 4 4 8 10 13 15 15 15 14 15 18 19 21 23 24 25 25 26 27 27 26 25 26 29 32 32 30 29
0 0 0 0 0 0 0 0 0 0 0 0 1 2 3 4 5 5 6 7 9 11 13 14 16 18 21 23 26 27 26 25 25 25 26 25 24 25 27 33 36 33 29 27
0 0 0 0 0 0 0 0 0 0 0 0 0 1 2 4 4 4 4 4 5 5 6 8 10 13 17 23 27 28 27 27 26 24 22 21 21 19 20 26 30 28 24 22
0 0 1 0 0 0 0 0 0 0 0 0 0 0 0 1 2 3 3 3 2 1 2 4 5 8 11 16 21 24 24 25 25 23 21 21 21 19 18 20 21 21 19 17
0 0 0 0 0 0 0 0 0 0 0 0 0 0 0 0 1 2 2 1 1 1 1 1 3 4 6 10 15 19 22 23 24 22 21 22 23 22 20 17 15 15 14 12
0 0 0 0 0 0 0 0 0 0 0 0 0 0 0 0 0 1 1 0 0 1 0 1 2 2 3 5 9 13 18 21 22 21 21 20 20 20 19 14 10 9 8 7
0 0 0 0 0 0 0 0 0 0 0 0 1 1 1 0 0 0 0 0 0 1 0 1 2 2 1 2 5 9 13 16 19 19 18 17 16 17 16 11 6 4 4 3

GEFSCGP_con_prob3kmehi_144.txt.gz
EHI
0 0 0 0 0 0 0 0 0 0 0 0 1 1 2 4 5 9 24 41 55 64 72 77 77 76 76 77 78 77 76 74 72 70 65 58 57 62 59 52 48 42 33 28
0 0 0 0 0 0 0 0 0 0 0 0 1 1 2 4 5 9 22 39 51 59 67 72 73 71 71 73 75 74 74 73 71 69 65 58 55 56 55 53 48 40 32 29
0 0 0 0 0 0 0 0 0 0 0 0 1 2 4 6 6 8 19 33 42 50 61 67 69 67 65 65 65 66 69 70 68 65 61 55 48 45 47 51 46 39 34 29
0 0 0 0 0 0 0 0 0 0 0 0 0 1 4 7 7 9 18 26 32 42 56 65 67 65 60 57 56 58 62 66 64 60 55 47 39 38 42 46 44 40 36 30
0 0 0 0 0 0 0 0 0 0 0 0 0 0 2 5 7 10 16 21 26 35 50 61 63 59 55 52 51 52 56 60 58 54 49 40 33 35 40 43 43 42 36 29
0 0 0 0 0 0 0 0 0 0 0 0 0 0 2 4 6 10 15 19 24 32 44 54 54 51 51 49 48 49 51 53 52 48 42 34 30 33 39 42 41 38 31 25
0 0 0 0 0 0 0 0 0 0 0 0 0 0 2 4 5 8 13 19 25 32 42 47 46 46 47 47 46 46 46 47 45 40 35 30 27 30 34 35 33 28 21 17
0 0 0 0 0 0 0 0 0 0 0 0 0 1 2 3 3 5 11 17 24 31 37 39 39 41 43 44 43 42 42 41 38 34 29 24 22 23 24 25 24 19 14 12
0 0 0 0 0 0 0 0 0 0 0 0 1 1 2 2 2 5 9 16 21 27 32 32 33 37 39 40 40 39 38 37 34 30 24 19 16 16 16 20 20 16 13 12
0 0 0 0 0 0 0 0 0 0 0 0 1 2 2 3 4 7 13 17 21 26 29 30 32 35 36 38 37 35 34 32 30 26 21 17 15 15 15 17 19 20 19 19
0 0 0 0 0 0 0 0 0 0 0 0 0 1 1 3 5 10 16 18 21 25 29 31 35 36 36 35 34 31 29 28 26 23 20 18 17 15 14 14 18 24 27 27
0 0 0 0 0 0 0 0 0 0 0 0 0 0 1 2 5 9 12 16 19 26 32 36 38 39 36 34 32 29 26 24 22 19 18 19 18 15 13 12 16 25 29 29
0 0 0 0 0 0 0 0 0 0 0 0 0 0 1 2 4 5 8 12 18 28 39 45 47 46 40 35 33 29 25 23 20 16 15 17 17 15 12 11 14 21 25 25
0 0 0 0 0 0 0 0 0 0 0 0 0 2 4 5 5 6 8 11 17 29 42 52 58 58 51 42 37 32 27 24 22 19 16 17 17 15 12 11 14 20 22 20
0 0 0 0 0 0 0 0 0 0 0 0 1 5 10 12 11 9 9 12 20 29 38 50 61 67 62 52 43 37 33 32 31 26 22 20 18 16 14 13 16 22 23 19
0 0 0 0 0 0 0 0 0 0 0 1 2 8 16 20 17 14 12 14 23 29 34 44 59 67 66 58 49 44 41 42 41 35 27 24 23 20 16 15 19 25 26 25
2 2 1 0 0 0 0 0 0 1 1 2 6 12 19 22 21 19 17 19 25 31 35 42 53 61 62 58 54 50 47 47 47 40 31 27 27 25 20 17 22 29 32 32
5 5 3 0 0 0 0 1 1 3 4 7 12 16 18 19 20 21 23 24 30 37 41 43 48 54 58 57 56 53 50 48 47 41 34 30 30 30 27 26 32 40 42 41
6 5 2 0 0 0 0 1 3 6 9 12 16 18 16 16 17 21 25 28 34 41 44 43 43 48 53 55 57 56 53 49 44 39 36 36 36 36 35 37 43 50 52 50
5 4 1 0 0 0 0 1 3 7 11 16 19 19 19 18 18 20 23 26 31 37 40 39 39 44 49 54 59 59 58 55 47 41 41 44 45 44 42 43 47 50 50 48
2 1 0 0 0 0 1 2 4 9 14 18 20 20 22 23 20 19 20 22 23 27 31 33 35 39 45 52 57 58 59 58 52 47 48 50 50 46 43 44 44 41 38 35
0 0 1 1 1 2 2 3 6 12 16 16 15 16 18 19 19 19 21 22 20 21 23 25 28 32 37 43 48 50 50 51 48 45 45 45 44 39 35 37 37 33 29 26
1 1 2 3 4 5 5 4 6 9 11 11 11 10 10 13 18 21 22 21 18 17 17 18 20 23 25 29 34 38 39 39 37 34 34 33 31 29 26 26 27 26 23 21
2 4 5 5 5 7 7 5 4 5 6 8 10 10 9 11 14 16 16 14 12 12 12 12 13 14 16 19 23 27 29 30 28 26 25 23 22 21 19 18 18 18 17 16
2 5 6 5 4 5 5 4 2 3 6 8 10 10 9 8 7 7 7 7 6 6 6 6 6 6 8 10 13 16 19 21 21 20 19 18 17 15 14 13 11 10 10 9
1 3 5 4 4 3 2 2 1 3 6 9 11 9 6 4 3 2 3 3 3 2 2 2 2 2 3 4 7 10 13 15 17 17 16 16 15 13 11 9 7 5 4 4

GEFSCGP_con_prob3kmehi_150.txt.gz
EHI
0 0 0 0 0 0 0 0 0 0 0 0 1 4 8 12 17 23 32 46 58 64 67 72 77 78 77 74 68 63 59 53 42 33 30 29 23 17 14 12 11 10 7 5
0 0 0 0 0 0 0 0 0 0 0 0 1 3 6 10 14 20 28 41 53 61 68 74 76 74 73 71 68 64 60 54 45 35 31 29 24 18 15 14 13 12 8 5
0 0 0 0 0 0 0 0 0 0 0 0 0 1 2 6 11 15 22 34 46 55 63 70 70 66 63 63 63 61 59 55 47 38 32 30 25 20 16 14 14 13 9 6
0 0 0 0 0 0 0 0 0 0 0 0 0 0 1 4 9 13 17 27 40 48 54 58 58 56 55 54 55 55 55 53 47 40 35 32 28 23 19 15 13 11 9 7
0 0 0 0 0 0 0 0 0 0 0 0 0 0 0 3 9 12 16 23 33 40 44 45 46 48 49 50 50 50 50 48 44 39 35 30 26 22 20 17 12 9 7 6
0 0 0 0 0 0 0 0 0 0 0 0 0 0 0 2 7 12 15 19 27 33 37 38 39 41 44 46 48 47 45 41 38 34 31 25 19 17 18 17 11 8 6 5
0 0 0 0 0 0 0 0 0 0 0 0 0 0 0 1 5 11 15 18 24 28 32 34 35 35 36 39 42 41 39 34 29 27 25 20 14 12 14 14 9 6 4 4
0 0 0 0 0 0 0 0 0 0 0 0 0 0 0 1 5 10 13 17 22 25 27 29 30 30 29 31 35 35 32 26 22 21 19 16 11 8 9 8 7 4 2 2
0 0 0 0 0 0 0 0 0 0 0 0 0 0 0 1 5 8 10 14 18 19 21 23 24 23 22 23 28 30 26 20 16 14 13 11 9 7 5 5 5 3 1 1
0 0 0 0 0 0 0 0 0 0 0 0 0 0 0 1 3 5 7 11 13 16 19 20 19 18 18 21 23 23 21 16 11 8 7 7 6 5 4 3 3 2 0 0
0 0 0 0 0 0 0 0 0 0 0 0 0 0 0 1 2 3 4 7 9 12 16 18 17 17 19 20 20 18 15 11 7 5 5 4 3 2 1 2 2 1 0 0
0 0 0 0 0 0 0 0 0 0 0 0 0 0 0 1 2 3 4 5 7 8 12 16 17 17 18 18 16 14 10 7 5 4 3 2 1 0 0 1 1 0 0 0
0 0 0 0 0 0 0 0 0 0 0 0 0 0 0 1 2 4 5 6 6 7 9 14 17 15 13 13 11 10 8 6 6 5 3 2 0 0 0 0 0 0 0 0
0 0 0 0 0 0 0 0 0 0 0 0 0 0 0 1 2 4 5 6 7 8 9 13 14 11 9 9 9 8 7 7 6 6 4 2 1 0 0 0 0 0 0 0
0 0 0 0 0 0 0 0 0 0 0 0 1 1 1 2 3 5 6 8 9 10 12 13 11 9 8 9 9 7 6 5 4 5 5 3 2 1 0 0 0 0 0 0
0 0 0 0 0 0 0 1 1 1 1 2 2 2 3 5 8 8 8 10 11 12 13 12 9 8 8 9 8 6 4 2 2 3 4 4 2 1 0 0 0 0 0 0
0 0 0 0 0 0 0 2 4 5 6 7 7 7 8 11 13 11 9 11 13 13 14 12 9 7 7 9 8 5 3 2 2 3 3 3 2 0 0 0 0 0 0 0
0 0 0 0 0 0 0 1 4 7 9 10 11 12 13 14 14 12 10 12 13 13 15 15 12 8 7 8 8 6 5 5 5 4 3 2 1 0 0 0 1 0 0 0
0 0 0 0 0 0 1 1 2 4 6 10 12 13 13 12 12 12 11 12 13 13 16 18 15 11 8 7 9 10 8 8 7 5 4 3 2 1 1 1 1 0 0 1
0 0 0 0 0 0 1 1 1 2 4 8 10 10 7 7 8 10 11 12 12 11 13 15 14 11 8 7 11 12 10 8 7 6 5 4 3 2 2 2 1 1 1 1
0 0 0 0 0 0 1 1 2 3 4 6 7 6 4 3 5 8 10 11 10 9 9 10 10 9 8 8 11 12 10 8 7 6 6 5 4 3 3 3 3 2 2 2
0 0 0 0 0 0 0 1 2 4 4 4 4 4 3 3 5 8 9 9 7 7 7 7 7 8 8 8 8 8 7 6 5 5 6 6 5 4 3 3 3 3 3 3
1 0 0 0 0 0 0 1 1 2 3 3 3 3 3 3 4 5 6 7 7 6 6 4 4 5 5 4 3 3 3 4 3 4 5 4 4 3 3 3 4 3 3 3
1 0 0 0 1 1 1 1 1 1 2 3 3 2 3 2 1 1 3 4 4 4 2 1 1 1 1 1 1 1 1 2 2 3 3 3 3 4 4 4 4 4 3 3
1 0 0 1 2 2 2 2 1 1 2 2 2 1 1 1 1 0 1 1 1 1 0 0 0 0 0 0 0 0 0 1 1 2 3 3 4 5 5 4 3 3 2 2
0 0 0 1 2 2 1 1 2 2 2 2 1 0 0 1 0 0 0 0 0 0 0 0 0 0 0 0 0 0 0 0 1 2 3 3 5 6 6 4 2 1 1 1

GEFSCGP_con_prob3kmehi_156.txt.gz
EHI
0 0 0 0 0 0 0 0 0 0 0 0 0 0 3 10 18 22 20 20 25 29 30 37 49 60 63 55 47 45 43 38 29 20 10 5 2 1 0 0 0 0 0 0
0 0 0 0 0 0 0 0 0 0 0 0 0 1 4 9 14 16 15 16 21 28 33 39 48 58 62 58 52 47 42 37 29 20 11 6 3 2 1 0 0 0 0 0
0 0 0 0 0 0 0 0 0 0 0 0 0 1 4 6 7 7 7 9 16 25 34 41 48 53 56 56 52 46 40 36 31 22 14 9 7 5 4 2 1 1 1 1
0 0 0 0 0 0 0 0 0 0 0 0 0 1 2 2 1 1 3 7 11 20 30 37 42 47 47 45 44 41 37 35 31 25 18 14 11 8 7 6 4 4 3 3
0 0 0 0 0 0 0 0 0 0 0 0 0 0 0 0 0 0 2 6 10 15 24 30 35 39 39 36 35 36 34 32 30 26 21 18 14 10 9 9 8 6 4 3
0 0 0 0 0 0 0 0 0 0 0 0 0 0 0 0 0 0 1 4 8 13 20 26 30 33 33 31 31 31 30 29 29 26 23 20 16 12 9 9 8 7 4 3
0 0 0 0 0 0 0 0 0 0 0 0 0 0 0 0 0 0 0 2 7 12 18 23 27 29 28 26 26 26 25 25 26 26 23 21 17 12 8 8 8 7 5 4
0 0 0 0 0 0 0 0 0 0 0 0 0 0 0 0 0 0 1 3 7 11 15 20 22 21 20 19 20 21 19 18 20 21 21 20 16 10 7 7 7 6 5 4
0 0 0 0 0 0 0 0 0 0 0 0 0 0 0 0 0 1 2 4 6 8 11 14 14 12 11 13 16 17 15 14 14 14 15 15 12 8 6 6 5 5 4 4
0 0 0 0 0 0 0 0 0 0 0 0 0 0 0 0 0 1 2 4 4 5 7 7 6 5 5 8 12 14 13 12 10 9 9 8 7 6 4 4 4 4 3 2
0 0 0 0 0 0 0 0 0 0 0 0 0 0 0 0 0 0 1 2 4 5 4 3 3 3 3 5 8 10 10 10 8 7 5 4 4 4 3 2 3 3 2 1
0 0 0 0 0 0 0 0 0 0 0 0 0 0 0 0 0 0 0 1 3 4 3 1 1 1 3 4 6 6 6 6 5 5 4 4 4 3 2 1 1 2 1 0
0 0 0 0 0 0 0 0 0 0 0 0 0 0 0 0 0 0 0 0 1 1 1 0 0 1 3 4 4 4 4 3 2 3 4 4 4 3 1 0 0 0 0 0
0 0 0 0 0 0 0 0 0 0 0 0 0 0 0 0 0 0 0 0 0 0 0 0 0 1 2 3 4 3 3 1 0 1 3 4 4 2 1 0 0 0 0 0
0 0 0 0 0 0 0 0 0 0 0 0 0 0 0 0 0 0 0 0 0 0 0 0 0 0 0 2 4 3 2 1 0 1 2 3 2 1 0 0 0 0 0 0
0 0 0 0 0 0 0 1 0 0 0 0 1 1 1 0 0 1 1 0 0 0 0 0 0 0 0 2 3 3 1 0 0 0 1 2 1 0 0 0 0 0 0 0
0 0 0 0 0 0 0 0 0 0 0 0 1 1 1 1 2 3 2 0 0 0 0 0 0 0 1 2 2 2 1 0 0 0 0 0 0 0 0 0 0 0 0 0
0 0 0 0 0 0 0 0 0 0 0 1 2 2 2 3 5 5 2 0 0 0 0 0 0 0 1 1 1 1 0 0 0 0 0 0 0 0 0 0 0 0 0 0
0 0 0 0 0 0 0 0 0 0 0 1 2 2 3 4 5 5 3 1 0 0 1 1 1 0 0 0 1 1 0 0 0 0 0 0 0 0 0 0 0 0 0 0
0 0 0 0 0 0 0 0 0 0 0 0 2 2 2 2 3 3 3 2 1 1 1 2 1 0 0 0 0 0 0 0 0 0 0 0 0 0 0 0 0 0 0 0
0 0 0 0 0 0 0 0 0 0 0 2 3 3 2 2 2 3 3 3 3 1 1 1 0 0 0 0 0 0 0 0 0 0 0 0 0 0 0 0 0 0 0 0
0 0 0 0 0 0 0 0 1 1 1 4 5 4 3 4 3 2 2 3 3 2 0 0 0 0 0 0 0 0 0 0 0 0 0 0 0 0 0 0 0 0 0 0
0 0 0 0 0 0 0 0 1 1 2 4 4 3 3 3 2 1 1 1 1 1 0 0 0 0 0 0 0 0 0 0 0 0 0 0 0 0 0 0 1 1 1 1
0 0 0 0 0 0 0 0 0 1 2 2 2 1 1 1 0 0 0 0 0 0 0 0 0 0 0 0 0 0 0 0 0 0 0 0 0 0 1 1 2 2 2 2
0 0 0 0 0 0 0 0 0 1 1 1 0 0 0 0 0 0 0 0 0 0 0 0 0 0 0 0 0 0 0 0 0 0 0 0 0 0 1 2 3 3 2 2
0 0 0 0 0 0 0 0 0 0 0 0 0 0 0 0 0 0 0 0 0 0 0 0 0 0 0 0 0 0 0 0 0 0 0 0 0 0 1 3 3 2 1 1

GEFSCGP_con_prob3kmehi_162.txt.gz
EHI
0 0 0 0 0 0 0 0 0 0 0 0 0 1 4 5 4 8 17 26 30 33 41 52 56 54 53 56 60 58 56 54 49 43 39 33 26 18 10 6 5 5 5 6
0 0 0 0 0 0 0 0 0 0 0 0 0 1 2 3 4 6 13 20 24 29 41 55 62 63 63 64 64 61 58 57 56 50 42 35 27 19 12 9 10 8 6 5
0 0 0 0 0 0 0 0 0 0 0 0 1 0 0 1 2 5 9 13 17 25 39 56 68 71 70 68 67 65 64 64 63 57 46 37 29 21 14 13 14 14 10 7
0 0 0 0 0 0 0 0 0 0 0 0 0 0 0 1 2 5 9 13 17 23 34 51 66 69 67 65 63 65 67 68 67 60 49 40 31 22 16 15 17 16 13 10
0 0 0 0 0 0 0 0 0 0 0 0 0 0 0 1 2 5 10 14 17 22 30 43 56 62 62 60 59 61 66 69 67 61 53 44 34 26 21 19 19 18 15 12
0 0 0 0 0 0 0 0 0 0 0 0 0 0 0 1 1 3 6 10 13 18 27 38 49 57 60 58 57 58 61 63 62 58 52 44 38 33 28 24 22 20 16 13
0 0 0 0 0 0 0 0 0 0 0 0 0 0 1 1 1 2 5 9 12 18 26 35 44 53 55 54 53 52 51 52 53 51 45 40 38 36 31 26 21 17 14 14
0 0 0 0 0 0 0 0 0 0 0 0 0 1 1 1 1 3 6 11 16 22 27 33 40 44 45 45 45 43 42 42 42 41 38 35 34 33 29 24 19 14 12 13
0 0 0 0 0 0 0 0 0 0 0 0 0 1 1 1 1 2 5 11 19 25 29 32 36 38 36 36 36 34 34 34 33 33 32 32 30 26 23 21 19 17 14 12
0 0 0 0 0 0 0 0 0 0 0 0 0 0 0 0 0 2 6 12 19 25 29 31 34 35 33 32 30 28 29 30 29 29 29 27 24 19 16 17 19 18 15 11
0 0 0 0 0 0 0 0 0 0 0 0 0 0 0 0 1 4 8 14 19 23 27 29 30 31 31 29 27 27 29 29 27 26 24 21 18 13 12 14 15 15 12 10
0 0 0 0 0 0 0 0 0 0 0 0 0 0 0 1 2 5 9 14 18 21 23 24 26 28 30 30 28 27 27 26 24 22 19 17 14 11 10 10 11 11 10 9
0 0 0 0 0 0 0 0 0 0 0 0 0 0 1 2 4 6 9 12 16 20 21 22 25 29 31 30 28 26 24 23 22 19 15 13 11 10 9 8 8 8 8 7
0 0 0 0 0 0 0 0 0 0 0 0 0 0 1 4 7 9 11 12 15 18 20 22 26 29 30 28 24 23 22 22 21 18 13 10 9 8 7 6 6 6 6 6
0 0 0 0 0 0 0 0 0 0 0 0 0 1 4 8 12 15 16 16 15 17 18 20 23 25 25 23 21 20 21 21 21 17 12 10 9 6 5 4 5 5 5 5
0 0 0 0 0 0 0 0 0 0 0 0 0 3 9 13 15 18 20 18 17 18 18 16 17 19 20 20 20 20 20 20 19 15 12 12 10 6 4 4 5 5 6 6
0 0 0 0 0 0 0 0 0 0 1 1 2 7 14 16 15 18 19 17 16 18 18 14 13 14 16 18 20 20 19 18 16 13 12 12 10 6 3 4 5 5 6 8
0 0 0 0 0 0 0 0 0 1 2 2 5 10 14 15 15 15 15 14 13 15 16 15 14 14 17 19 21 21 19 17 15 12 11 11 9 5 3 4 5 5 6 7
1 1 0 0 0 0 0 0 0 1 2 3 6 11 13 13 12 11 12 11 11 12 14 14 14 15 18 22 24 23 21 19 15 11 9 8 7 4 3 4 5 6 6 7
1 1 0 0 0 0 0 0 0 2 3 3 6 10 12 12 12 12 11 10 10 11 12 13 13 13 15 19 21 21 20 19 16 11 7 6 5 5 5 5 6 6 8 8
1 0 0 0 0 0 0 1 3 4 6 6 7 11 14 16 17 15 13 11 12 13 12 12 11 11 11 13 15 15 15 15 13 10 7 5 6 6 6 6 7 8 9 10
1 1 1 0 0 0 2 4 7 10 12 11 9 12 16 18 18 16 14 14 15 15 13 11 11 11 12 13 11 9 8 9 9 8 6 4 4 4 4 4 6 9 9 9
2 2 2 1 1 1 3 6 8 11 13 11 8 10 13 14 13 12 11 13 15 15 14 11 10 11 12 13 11 8 6 7 7 6 4 2 1 1 1 2 4 7 7 6
2 3 3 2 2 2 2 3 6 7 8 8 7 8 9 10 9 8 9 11 13 14 13 12 10 9 9 9 9 7 6 6 6 4 3 1 0 0 0 1 3 4 4 4
2 3 4 4 3 2 1 1 4 6 6 6 6 6 6 7 7 8 8 10 12 13 12 11 8 6 5 5 5 5 5 5 3 2 1 0 0 0 0 1 2 3 3 2
2 3 5 4 3 2 2 2 4 6 6 6 6 5 4 5 7 9 9 10 12 12 11 9 6 4 4 4 3 4 4 3 2 1 0 0 0 0 0 1 2 2 2 1

GEFSCGP_con_prob3kmehi_168.txt.gz
EHI
0 0 0 0 0 0 0 0 0 0 0 0 0 0 1 2 5 12 31 55 74 87 94 97 97 97 98 99 98 95 93 95 91 79 68 60 51 42 36 39 49 51 42 36
0 0 0 0 0 0 0 0 0 0 0 0 0 0 1 2 5 13 28 48 66 83 94 97 98 97 97 97 97 95 94 94 92 83 73 65 57 48 41 44 53 54 46 40
0 0 0 0 0 0 0 0 0 0 0 0 0 0 2 4 6 12 23 38 55 75 90 96 96 95 95 96 97 95 93 93 92 87 79 71 67 60 52 53 57 55 48 44
0 0 0 0 0 0 0 0 0 0 0 0 0 1 4 7 6 9 18 31 46 65 83 92 93 93 94 94 94 92 92 91 90 87 82 79 75 69 61 59 58 54 48 44
0 0 0 0 0 0 0 0 0 0 0 0 0 1 5 8 6 7 15 26 39 56 74 87 91 92 92 89 87 87 87 86 85 83 82 82 78 71 65 62 59 52 48 47
0 0 0 0 0 0 0 0 0 0 0 0 0 1 4 7 7 8 14 22 32 46 64 81 88 88 86 81 81 82 80 78 79 78 79 80 77 71 67 65 58 49 46 47
0 0 0 0 0 0 0 0 0 0 0 0 0 1 5 7 8 9 13 20 26 37 54 73 80 79 77 76 78 78 75 74 73 74 77 76 72 68 65 60 52 45 41 41
0 0 0 0 0 0 0 0 0 0 0 0 1 3 6 9 11 11 14 20 25 33 47 62 71 73 73 74 75 75 73 72 70 71 73 70 65 61 57 50 43 39 36 34
0 0 0 0 0 0 0 0 0 0 0 0 1 4 7 9 12 12 14 19 25 32 41 52 64 71 73 74 73 71 71 70 68 67 64 61 57 56 53 47 39 36 35 33
0 0 0 0 0 0 0 0 0 0 0 0 1 3 7 10 11 10 13 18 25 29 34 44 57 67 70 69 68 67 65 64 62 58 54 50 49 52 53 47 40 38 37 37
0 0 0 0 0 0 0 0 0 0 0 0 1 3 7 11 10 9 15 23 28 28 32 40 51 59 60 59 60 61 59 56 53 50 47 44 45 47 48 44 40 38 38 37
0 0 0 0 0 0 0 0 0 0 0 0 1 3 6 8 9 13 22 31 32 33 37 43 49 52 51 51 52 53 52 49 45 43 43 43 42 43 43 39 36 34 32 32
0 0 0 0 0 0 0 0 0 0 0 0 1 3 5 8 13 21 31 36 36 37 42 47 48 47 46 46 46 46 44 41 38 37 39 40 40 39 38 34 31 29 26 24
0 0 0 0 0 0 0 0 0 0 0 0 1 4 9 14 21 30 37 38 38 41 45 46 45 42 41 40 39 38 36 33 34 36 36 37 36 35 33 32 29 25 20 16
0 0 0 0 0 0 0 0 0 0 0 0 2 6 14 22 29 34 37 40 43 46 46 43 39 37 35 34 32 31 31 32 34 36 36 35 34 30 27 26 25 22 16 12
0 0 0 0 0 0 0 0 0 0 0 1 4 11 20 29 34 37 39 44 48 48 45 41 36 33 31 30 28 28 30 32 34 34 34 33 31 27 21 19 21 20 15 12
1 0 0 0 0 0 0 0 0 1 1 2 8 18 29 37 42 44 46 51 53 50 46 42 37 34 32 30 27 25 27 30 32 31 29 27 25 22 18 16 18 17 14 11
2 1 0 0 0 0 0 0 1 2 4 8 15 26 35 41 46 49 53 57 55 51 49 46 40 35 34 31 26 24 25 26 26 26 24 21 17 16 16 17 17 16 13 10
3 2 1 0 0 0 0 1 3 6 11 18 25 32 35 37 40 46 52 53 49 47 47 44 38 34 33 31 29 28 27 25 23 22 21 18 15 14 15 16 15 14 12 9
2 2 1 0 0 0 2 5 8 12 19 28 33 33 31 32 37 44 48 45 41 39 38 34 31 31 30 31 32 31 28 24 21 19 19 18 16 14 14 14 13 12 9 8
1 1 0 0 0 1 5 11 16 21 29 36 39 36 32 35 41 45 44 38 33 30 27 25 25 26 27 28 29 28 24 21 19 17 16 15 14 13 12 13 12 9 6 4
1 2 2 1 2 6 12 19 27 33 38 41 42 40 37 38 40 39 36 31 25 22 22 23 24 24 24 25 24 21 17 13 13 13 11 9 9 8 8 9 8 5 2 1
3 4 5 5 7 13 20 25 32 35 36 37 36 34 32 31 30 27 25 23 20 19 20 21 22 21 21 20 17 14 10 7 7 8 8 6 6 5 5 5 3 1 0 0
5 5 6 8 11 16 20 24 27 28 27 26 24 22 20 20 20 19 18 19 19 19 18 18 18 18 17 14 11 8 7 5 5 6 5 4 4 3 3 2 1 0 0 0
8 6 5 7 11 13 15 20 24 24 21 18 15 15 15 15 15 14 15 17 18 17 16 16 18 17 14 10 7 6 7 6 6 5 4 3 2 1 1 0 0 0 0 0
10 7 5 7 9 9 13 19 23 22 19 17 15 14 15 14 11 10 12 16 17 16 16 17 18 17 13 8 5 5 7 6 5 4 3 2 1 0 0 0 0 0 0 0

GEFSCGP_con_prob3kmehi_174.txt.gz
EHI
0 0 0 0 0 0 0 0 0 0 0 0 2 6 11 17 26 40 51 56 56 55 60 71 80 88 92 92 89 87 80 70 62 51 37 25 16 12 12 13 13 14 15 15
0 0 0 0 0 0 0 0 0 0 0 1 2 6 10 16 26 40 52 61 65 66 69 76 83 90 95 95 93 90 83 74 64 51 33 21 14 12 12 13 14 14 16 17
0 0 0 0 0 0 0 0 0 0 1 1 2 4 9 17 26 38 52 63 71 76 80 83 87 92 96 98 96 93 86 76 64 51 36 24 17 15 14 14 14 14 15 17
0 0 0 0 0 0 0 0 0 0 0 0 1 2 6 14 24 35 47 60 70 78 83 87 89 90 93 95 95 92 86 77 66 55 45 34 26 21 16 14 14 13 13 14
0 0 0 0 0 0 0 0 0 0 0 0 0 0 3 9 19 30 42 56 68 76 83 87 87 85 85 88 89 88 84 76 67 60 51 38 28 21 14 11 12 12 13 14
0 0 0 0 0 0 0 0 0 0 0 0 0 0 1 6 14 25 38 52 63 72 80 84 84 81 79 79 80 81 78 71 63 58 49 37 26 17 11 9 10 12 14 14
0 0 0 0 0 0 0 0 0 0 0 0 0 0 0 4 11 21 33 46 57 67 76 79 78 76 73 72 73 76 75 68 61 54 46 37 28 18 13 10 9 10 12 13
0 0 0 0 0 0 0 0 0 0 0 0 0 0 2 6 11 19 31 43 53 63 70 71 69 66 65 65 68 72 72 67 60 53 44 35 28 20 14 10 8 8 9 10
0 0 0 0 0 0 0 0 0 0 0 0 0 1 3 8 12 19 29 39 50 59 63 61 58 58 58 61 65 68 68 63 56 48 38 29 24 20 15 10 7 6 6 6
0 0 0 0 0 0 0 0 0 0 0 0 0 1 3 8 13 18 25 35 44 51 55 53 51 53 56 58 60 61 60 56 49 39 29 22 20 18 15 10 7 6 3 2
0 0 0 0 0 0 0 0 0 0 0 0 0 1 2 5 12 18 26 32 38 45 48 48 49 52 54 53 52 52 52 48 41 31 23 19 18 17 14 11 9 7 3 1
0 0 0 0 0 0 0 0 0 0 0 0 0 1 1 4 12 22 28 32 37 42 45 47 50 52 51 47 44 43 42 38 33 26 20 18 16 14 12 10 9 8 5 3
0 0 0 0 0 0 0 0 0 0 0 0 0 1 2 6 14 21 27 32 39 43 44 45 46 46 43 40 38 35 31 28 27 24 20 17 14 11 10 9 8 7 6 4
0 0 0 0 0 0 0 0 0 0 0 0 0 1 3 9 15 20 25 31 37 40 39 37 37 36 34 33 31 28 24 22 22 21 19 17 14 11 9 9 7 7 6 5
0 0 0 0 0 0 0 0 0 0 1 1 1 2 5 11 18 22 25 29 33 34 33 31 31 30 29 29 27 25 22 20 21 21 19 17 14 11 10 10 8 7 6 6
0 0 0 0 0 0 0 0 0 1 2 2 2 4 9 17 22 23 26 28 31 32 33 31 29 27 27 26 25 24 22 21 21 22 21 17 13 11 10 10 9 8 6 6
0 0 0 0 0 0 0 0 1 3 4 4 4 7 16 26 28 26 27 29 31 33 34 31 27 25 24 24 22 20 19 20 21 22 19 15 11 11 11 10 9 7 6 6
0 0 0 0 0 0 1 1 2 7 11 11 10 14 25 35 37 33 29 28 29 30 30 26 24 23 23 23 21 18 17 18 19 19 16 12 10 10 10 9 7 5 4 4
0 0 0 0 0 1 2 3 4 9 18 21 20 24 33 41 43 37 28 25 25 24 22 21 20 22 23 22 21 18 16 17 17 15 12 10 8 8 6 5 4 3 3 3
0 0 0 0 0 1 3 5 5 9 18 25 28 30 33 38 37 31 25 23 22 19 16 16 18 19 19 18 17 16 16 16 14 12 9 6 4 3 2 1 1 2 2 1
0 0 0 0 0 1 3 6 6 8 14 22 28 30 29 27 26 25 24 23 21 17 13 13 15 15 13 11 12 14 14 13 10 7 4 2 1 1 0 0 0 1 1 0
0 0 0 0 0 1 2 4 6 8 13 19 23 25 25 22 20 22 21 19 17 13 10 10 12 10 7 6 8 10 9 8 6 4 1 0 0 0 0 0 0 0 0 0
0 0 0 0 0 0 0 2 5 9 14 16 16 18 18 17 17 17 15 12 11 9 7 6 6 5 3 3 4 4 4 4 4 2 1 0 0 0 0 0 0 0 0 0
0 0 0 0 1 1 1 3 5 9 11 11 10 11 13 12 12 12 11 10 9 7 6 4 3 3 1 1 1 1 1 2 2 1 0 0 0 0 0 0 0 0 0 0
0 0 0 0 1 2 2 4 5 7 9 8 8 9 11 10 9 9 10 10 8 6 5 4 3 2 1 0 1 0 1 1 1 0 0 0 0 0 0 0 0 0 0 0
0 0 0 0 0 1 3 4 4 6 8 9 9 9 9 8 8 8 8 8 7 5 4 4 3 2 0 0 1 0 0 1 0 0 0 0 0 0 0 0 0 0 0 0